This is the latest recevied weather packets stored in our database for station/object IZ5RIE-13. If no packets are shown the sender has not sent any weather packets the latest 10 day(s).
| Time | Temp. | Humidity | Pressure | Rain* | Wind** | Luminosity | Snow |
|---|---|---|---|---|---|---|---|
| 1788540393 | 35° C | 85% | 1019.7 hPa | - | - | - | - |
| 1788539493 | 35.56° C | 87% | 1019.8 hPa | - | - | - | - |
| 1788538593 | 36.11° C | 83% | 1019.8 hPa | - | - | - | - |
| 1788537691 | 36.11° C | 89% | 1019.9 hPa | - | - | - | - |
| 1788536791 | 36.67° C | 70% | 1019.9 hPa | - | - | - | - |
| 1788535891 | 37.22° C | 58% | 1019.9 hPa | - | - | - | - |
| 1788534991 | 36.67° C | 63% | 1019.9 hPa | - | - | - | - |
| 1788534091 | 36.11° C | 89% | 1019.9 hPa | - | - | - | - |
| 1788533191 | 36.11° C | 84% | 1020 hPa | - | - | - | - |
| 1788532290 | 35.56° C | 100% | 1020 hPa | - | - | - | - |
| 1788531390 | 34.44° C | 100% | 1020 hPa | - | - | - | - |
| 1788530490 | 33.89° C | 100% | 1020 hPa | - | - | - | - |
| 1788529624 | 33.89° C | 100% | 1020 hPa | - | - | - | - |
| 1788529590 | 33.89° C | 100% | 1020 hPa | - | - | - | - |
| 1788528696 | 34.44° C | 100% | 1020.1 hPa | - | - | - | - |
| 1788527829 | 35.56° C | 100% | 1020.3 hPa | - | - | - | - |
| 1788527796 | 35.56° C | 100% | 1020.3 hPa | - | - | - | - |
| 1788526896 | 35° C | 87% | 1020.3 hPa | - | - | - | - |
| 1788525996 | 35.56° C | 92% | 1020.4 hPa | - | - | - | - |
| 1788525095 | 35° C | 100% | 1020.5 hPa | - | - | - | - |
| 1788524195 | 35° C | 97% | 1020.6 hPa | - | - | - | - |
| 1788523295 | 34.44° C | 100% | 1020.6 hPa | - | - | - | - |
| 1788522395 | 33.89° C | 100% | 1020.6 hPa | - | - | - | - |
| 1788521495 | 33.33° C | 100% | 1020.7 hPa | - | - | - | - |
| 1788520595 | 34.44° C | 100% | 1021 hPa | - | - | - | - |
* Rain since midnight (hover to see other rain measurements)
** Current wind speed in m/s (hover to see current wind gust speed)